• In Hungary
  • List of Countries
  • For 7 days
  • Water Temperature
  • Satellite Maps
  • Weather Map
  • News
  • Weather Widgets
  • user-avatar
    Login

    Hourly Weather Troszki

    Today, 26 September, Wednesday

    Time Temperature Precipitation Wind Pressure Humidity
    00:00 +6°C° 0 mm 5 mps 766 mmHg 74%
    01:00 +6°C° 0 mm 5 mps 766 mmHg 77%
    02:00 +6°C° 0 mm 5 mps 765 mmHg 77%
    03:00 +5°C° 0 mm 6 mps 765 mmHg 76%
    04:00 +5°C° 0 mm 7 mps 764 mmHg 76%
    05:00 +6°C° 0 mm 7 mps 764 mmHg 73%
    06:00 +6°C° 0 mm 7 mps 764 mmHg 70%
    07:00 +6°C° 0 mm 8 mps 764 mmHg 68%
    08:00 +7°C° 0.2 mm 8 mps 763 mmHg 69%
    09:00 +7°C° 0.2 mm 9 mps 763 mmHg 71%
    10:00 +7°C° 0.2 mm 9 mps 762 mmHg 72%
    11:00 +8°C° 0.3 mm 10 mps 761 mmHg 71%
    12:00 +8°C° 0.3 mm 10 mps 761 mmHg 69%
    13:00 +8°C° 0.3 mm 10 mps 760 mmHg 68%
    14:00 +9°C° 0.3 mm 10 mps 759 mmHg 65%
    15:00 +9°C° 0.3 mm 10 mps 759 mmHg 63%
    16:00 +9°C° 0.3 mm 10 mps 758 mmHg 60%
    17:00 +11°C° 0.2 mm 10 mps 758 mmHg 63%
    18:00 +11°C° 0.2 mm 10 mps 757 mmHg 65%
    19:00 +11°C° 0.2 mm 10 mps 757 mmHg 68%
    20:00 +12°C° 0.2 mm 10 mps 757 mmHg 71%
    21:00 +12°C° 0.2 mm 10 mps 756 mmHg 75%
    22:00 +13°C° 0.2 mm 10 mps 756 mmHg 79%
    23:00 +13°C° 0.2 mm 10 mps 756 mmHg 82%

    Tomorrow, 27 September, Thursday

    Time Temperature Precipitation Wind Pressure Humidity
    00:00 +14°C° 0.2 mm 10 mps 756 mmHg 85%
    01:00 +14°C° 0.2 mm 10 mps 756 mmHg 88%
    02:00 +15°C° 0.2 mm 9 mps 756 mmHg 89%
    03:00 +15°C° 0.2 mm 9 mps 756 mmHg 89%
    04:00 +15°C° 0.2 mm 9 mps 756 mmHg 90%
    05:00 +15°C° 0.1 mm 8 mps 756 mmHg 89%
    06:00 +15°C° 0.1 mm 8 mps 757 mmHg 88%
    07:00 +15°C° 0.1 mm 8 mps 757 mmHg 87%
    08:00 +15°C° 0.1 mm 8 mps 757 mmHg 85%
    09:00 +15°C° 0.1 mm 7 mps 758 mmHg 83%
    10:00 +15°C° 0.1 mm 7 mps 758 mmHg 82%
    11:00 +16°C° 0.1 mm 7 mps 758 mmHg 81%
    12:00 +16°C° 0.1 mm 7 mps 758 mmHg 80%
    13:00 +17°C° 0.1 mm 7 mps 757 mmHg 80%
    14:00 +17°C° 0 mm 7 mps 757 mmHg 80%
    15:00 +16°C° 0 mm 7 mps 756 mmHg 80%
    16:00 +16°C° 0 mm 7 mps 756 mmHg 81%
    17:00 +16°C° 0.1 mm 7 mps 755 mmHg 82%
    18:00 +16°C° 0.1 mm 7 mps 755 mmHg 83%
    19:00 +16°C° 0.1 mm 7 mps 754 mmHg 84%
    20:00 +16°C° 0.1 mm 8 mps 754 mmHg 84%
    21:00 +16°C° 0.1 mm 8 mps 753 mmHg 84%
    22:00 +16°C° 0.1 mm 8 mps 752 mmHg 84%
    23:00 +16°C° 0.3 mm 8 mps 752 mmHg 84%

    Day after tomorrow, 28 September, Friday

    Time Temperature Precipitation Wind Pressure Humidity
    00:00 +16°C° 0.3 mm 9 mps 751 mmHg 84%
    01:00 +16°C° 0.3 mm 9 mps 751 mmHg 84%
    02:00 +15°C° 0.5 mm 9 mps 751 mmHg 84%
    03:00 +13°C° 0.5 mm 9 mps 751 mmHg 83%
    04:00 +13°C° 0.5 mm 9 mps 751 mmHg 82%
    05:00 +12°C° 0 mm 8 mps 751 mmHg 80%
    06:00 +11°C° 0 mm 7 mps 752 mmHg 77%
    07:00 +10°C° 0 mm 6 mps 752 mmHg 74%
    08:00 +10°C° 0 mm 6 mps 753 mmHg 71%
    09:00 +11°C° 0 mm 6 mps 753 mmHg 67%
    10:00 +13°C° 0 mm 6 mps 754 mmHg 64%
    11:00 +13°C° 0 mm 6 mps 754 mmHg 63%
    12:00 +13°C° 0 mm 6 mps 754 mmHg 61%
    13:00 +13°C° 0 mm 5 mps 755 mmHg 60%
    14:00 +13°C° 0 mm 5 mps 755 mmHg 60%
    15:00 +12°C° 0 mm 5 mps 755 mmHg 61%
    16:00 +12°C° 0 mm 5 mps 755 mmHg 62%
    17:00 +11°C° 0 mm 4 mps 755 mmHg 64%
    18:00 +10°C° 0 mm 3 mps 756 mmHg 66%
    19:00 +9°C° 0 mm 2 mps 756 mmHg 68%
    20:00 +9°C° 0 mm 2 mps 756 mmHg 67%
    21:00 +9°C° 0 mm 2 mps 757 mmHg 66%
    22:00 +8°C° 0 mm 2 mps 757 mmHg 65%
    23:00 +8°C° 0.1 mm 2 mps 757 mmHg 66%

    29 September, Saturday

    Time Temperature Precipitation Wind Pressure Humidity
    00:00 +8°C° 0.1 mm 2 mps 758 mmHg 67%
    01:00 +8°C° 0.1 mm 3 mps 758 mmHg 68%
    02:00 +8°C° 0.1 mm 2 mps 758 mmHg 68%
    03:00 +8°C° 0.1 mm 2 mps 759 mmHg 69%
    04:00 +8°C° 0.1 mm 2 mps 759 mmHg 69%
    05:00 +8°C° 0 mm 2 mps 759 mmHg 68%
    06:00 +8°C° 0 mm 2 mps 760 mmHg 66%
    07:00 +9°C° 0 mm 1 mps 760 mmHg 65%
    08:00 +10°C° 0 mm 2 mps 761 mmHg 57%
    09:00 +12°C° 0 mm 2 mps 761 mmHg 50%
    10:00 +13°C° 0 mm 2 mps 762 mmHg 42%
    11:00 +14°C° 0 mm 2 mps 762 mmHg 39%
    12:00 +14°C° 0 mm 2 mps 762 mmHg 37%
    13:00 +14°C° 0 mm 3 mps 762 mmHg 34%
    14:00 +13°C° 0 mm 3 mps 762 mmHg 36%
    15:00 +13°C° 0 mm 3 mps 762 mmHg 38%
    16:00 +12°C° 0 mm 3 mps 762 mmHg 39%
    17:00 +11°C° 0 mm 3 mps 762 mmHg 43%
    18:00 +10°C° 0 mm 3 mps 762 mmHg 47%
    19:00 +8°C° 0 mm 2 mps 762 mmHg 51%
    20:00 +8°C° 0 mm 3 mps 762 mmHg 52%
    21:00 +8°C° 0 mm 3 mps 762 mmHg 52%
    22:00 +7°C° 0 mm 3 mps 762 mmHg 53%
    23:00 +7°C° 0 mm 3 mps 762 mmHg 53%

    30 September, Sunday

    Time Temperature Precipitation Wind Pressure Humidity
    00:00 +6°C° 0 mm 4 mps 762 mmHg 54%
    01:00 +6°C° 0 mm 4 mps 762 mmHg 54%
    02:00 +5°C° 0 mm 4 mps 761 mmHg 55%
    03:00 +5°C° 0 mm 4 mps 761 mmHg 56%
    04:00 +5°C° 0 mm 4 mps 760 mmHg 57%
    05:00 +5°C° 0 mm 4 mps 760 mmHg 58%
    06:00 +6°C° 0 mm 5 mps 760 mmHg 59%
    07:00 +6°C° 0 mm 5 mps 760 mmHg 60%
    08:00 +8°C° 0 mm 5 mps 760 mmHg 56%
    09:00 +10°C° 0 mm 5 mps 760 mmHg 53%
    10:00 +13°C° 0 mm 5 mps 760 mmHg 49%
    11:00 +13°C° 0 mm 5 mps 759 mmHg 47%
    12:00 +14°C° 0 mm 5 mps 759 mmHg 45%
    13:00 +15°C° 0 mm 5 mps 758 mmHg 43%
    14:00 +14°C° 0 mm 5 mps 758 mmHg 45%
    15:00 +14°C° 0 mm 4 mps 757 mmHg 47%
    16:00 +14°C° 0 mm 4 mps 757 mmHg 48%
    17:00 +13°C° 0 mm 4 mps 756 mmHg 53%
    18:00 +11°C° 0 mm 3 mps 756 mmHg 58%
    19:00 +10°C° 0 mm 3 mps 756 mmHg 63%
    20:00 +9°C° 0 mm 3 mps 756 mmHg 64%
    21:00 +9°C° 0 mm 3 mps 756 mmHg 65%
    22:00 +7°C° 0 mm 4 mps 755 mmHg 65%
    23:00 +7°C° 0 mm 4 mps 755 mmHg 64%

    1 October, Monday

    Time Temperature Precipitation Wind Pressure Humidity
    00:00 +7°C° 0 mm 4 mps 754 mmHg 64%
    01:00 +6°C° 0 mm 4 mps 754 mmHg 63%
    02:00 +7°C° 0 mm 3 mps 753 mmHg 63%
    03:00 +5°C° 0 mm 3 mps 753 mmHg 62%
    04:00 +5°C° 0 mm 3 mps 752 mmHg 62%
    05:00 +5°C° 0 mm 3 mps 752 mmHg 62%
    06:00 +5°C° 0 mm 3 mps 751 mmHg 62%
    07:00 +5°C° 0 mm 3 mps 751 mmHg 63%
    08:00 +8°C° 0 mm 3 mps 751 mmHg 58%
    09:00 +10°C° 0 mm 3 mps 750 mmHg 53%
    10:00 +13°C° 0 mm 2 mps 750 mmHg 49%
    11:00 +14°C° 0 mm 2 mps 750 mmHg 45%
    12:00 +15°C° 0 mm 2 mps 749 mmHg 42%
    13:00 +16°C° 0 mm 1 mps 749 mmHg 39%
    14:00 +16°C° 0 mm 1 mps 749 mmHg 42%
    15:00 +16°C° 0 mm 1 mps 749 mmHg 44%
    16:00 +15°C° 0 mm 1 mps 748 mmHg 47%
    17:00 +14°C° 0 mm 1 mps 748 mmHg 51%
    18:00 +13°C° 0 mm 1 mps 749 mmHg 55%
    19:00 +11°C° 0 mm 1 mps 749 mmHg 59%
    20:00 +10°C° 0 mm 2 mps 749 mmHg 62%
    21:00 +9°C° 0 mm 2 mps 749 mmHg 64%
    22:00 +9°C° 0 mm 2 mps 749 mmHg 67%
    23:00 +8°C° 0 mm 2 mps 749 mmHg 69%
    Show more